www.pogodaiklimat.ru

Погода и климат >> Архив погоды >> Россия >> город Севастополь >> Херсонесский Маяк


ПОГОДА в Херсонесском Маяке

  • Прогноз погоды в Херсонесском Маяке
  • Монитор погоды в Херсонесском Маяке

АРХИВ ПОГОДЫ в Херсонесском Маяке

Время (UTC), дата Ветер
(напр.,м/с)
 
Видим.   Явления Облачность Т
(С)
Тd
(С)
f
(%)
Тe
(С)
Тes
(С)
Комфортность P
(гПа)
Po
(гПа)
Тmin
(С)
Tmax
(С)
R
(мм)
R24
(мм)
S
(см)
12 12.06 ЮЗ 5
{11}
20 км 3/0
[Ac trans]
+31.2 +19.1 49 +37 +43 очень
душно
1007.5 1006.8
15 12.06 СЗ 4 20 км ясно +27.3 +22.3 74 +36 +38 очень
душно
1007.7 1007.0
18 12.06 СВ 2 20 км ясно +25.9 +14.4 49 +28 +28 жарко 1008.7 1008.0 +31.7
21 12.06 В 2 20 км ясно +23.1 +14.9 60 +27 +27 душно 1009.5 1008.8
00 13.06 В 2 20 км ясно +20.7 +14.8 69 +24 +24 комфорт 1009.3 1008.6
03 13.06 В 1 20 км ясно +20.0 +15.8 77 +24 +24 комфорт 1009.1 1008.4 +19.8
06 13.06 С 1 20 км 8/0
[Ci fib]
+24.2 +19.1 73 +29 +38 душно 1009.9 1009.2 +19.8
09 13.06 СЗ 3 20 км 6/3 600 м
[Cb calv Ci fib]
+26.0 +21.4 76 +33 +43 очень
душно
1010.8 1010.1
12 13.06 СЗ 2 20 км в посл. час гроза 10/10 600 м
[Cb cap]
+25.1 +21.2 79 +32 +32 очень
душно
1011.7 1011.0
15 13.06 В 2
{10}
20 км {гроза} 9/4 600 м
[Cu Sc Ac As]
+24.2 +19.7 76 +29 +30 душно 1010.9 1010.2
18 13.06 штиль 0 20 км {гроза} 3/0
[Ac trans]
+23.6 +20.4 82 +29 +29 душно 1011.7 1011.0 +26.2
21 13.06 В 1 20 км 8/3 600 м
[Cu Sc Ac trans]
+23.1 +20.8 87 +31 +31 очень
душно
1013.1 1012.4
00 14.06 штиль 0 20 км ясно +21.3 +19.7 91 +26 +26 душно 1012.0 1011.3
03 14.06 В 2 20 км 8/3 600 м
[Sc Ac trans Ci fib]
+20.6 +19.6 94 +26 +26 душно 1011.6 1010.9 +20.5
06 14.06 В 3 20 км 9/3 600 м
[Sc Ac trans]
+24.2 +17.6 67 +28 +31 душно 1012.3 1011.6 +20.5
09 14.06 СВ 4 20 км 10/10 600 м
[Cu Sc]
+27.5 +20.9 67 +34 +34 очень
душно
1013.1 1012.4
12 14.06 З 3 20 км 8/4 600 м
[Cu med, cong Ci fib]
+27.9 +20.7 65 +35 +41 очень
душно
1012.9 1012.2
15 14.06 ЮЗ 3 20 км 4/3 600 м
[Cu Sc Ci fib]
+29.9 +18.1 49 +34 +37 очень
душно
1012.5 1011.8
18 14.06 ЮЗ 2 20 км 3/3 600 м
[Sc Ci fib]
+24.9 +21.6 82 +32 +32 очень
душно
1013.6 1012.9 +30.3
21 14.06 штиль 0 20 км 3/0
[Ci fib]
+23.0 +20.7 87 +30 +30 очень
душно
1013.8 1013.1
00 15.06 В 2 20 км 1/0
[Ci fib]
+21.7 +20.1 91 +27 +27 душно 1013.4 1012.7
03 15.06 В 2 20 км 1/1 600 м
[Sc]
+21.1 +17.6 80 +25 +25 комфорт 1012.5 1011.8 +20.2
06 15.06 СЗ 1 20 км 4/3 600 м
[Sc Ci fib]
+24.8 +16.0 58 +28 +35 жарко 1012.6 1011.9 +20.2
09 15.06 СВ 7-10
{11}
20 км 8/1 600 м
[Cu med, cong Cc]
+30.2 +15.3 40 +33 +37 душно 1011.8 1011.1
12 15.06 СВ 8-11
{11}
20 км 6/1 600 м
[Cu med, cong Ci ing]
+31.1 +14.7 37 +33 +35 душно 1010.6 1009.9
15 15.06 В 5
{11}
20 км 6/0
[Ci ing]
+29.7 +15.5 42 +32 +34 душно 1009.6 1008.9
18 15.06 ЮЗ 3 20 км 3/0
[Ac lent Ci fib]
+26.7 +18.0 59 +31 +31 душно 1010.5 1009.8 +31.5
21 15.06 В 2 20 км 3/0
[Ac trans]
+23.5 +19.4 78 +29 +29 душно 1011.0 1010.3
00 16.06 В 3 20 км 1/0
[Ci fib]
+21.0 +18.1 84 +26 +26 душно 1010.1 1009.4
03 16.06 В 1 20 км ясно +21.0 +17.6 81 +26 +27 душно 1009.7 1009.0 +20.4
06 16.06 С 2 20 км ясно +25.9 +16.9 58 +30 +39 душно 1010.4 1009.7 +20.4
09 16.06 СВ 6
{10}
20 км 1/0
[Ci fib]
+30.9 +11.1 30 +31 +38 жарко 1010.1 1009.4
12 16.06 СЗ 5 20 км 1/0
[Ci fib]
+28.5 +18.4 54 +33 +41 очень
душно
1009.9 1009.2
15 16.06 З 4 20 км ясно +29.3 +14.9 42 +32 +34 душно 1009.3 1008.6
18 16.06 ЮВ 1 20 км ясно +27.7 +14.0 43 +30 +30 жарко 1009.7 1009.0 +31.9
21 16.06 В 1 20 км ясно +22.1 +15.2 65 +26 +26 душно 1009.9 1009.2
00 17.06 В 1 20 км ясно +20.4 +13.4 64 +24 +24 комфорт 1010.1 1009.4
03 17.06 ЮВ 1 20 км ясно +21.0 +15.1 69 +25 +26 комфорт 1010.3 1009.6 +20.1
06 17.06 СЗ 2 20 км ясно +25.4 +16.9 59 +29 +38 душно 1011.0 1010.3 +20.1
09 17.06 В 5 20 км 1/1 600 м
[Cu hum]
+28.8 +19.9 59 +35 +44 очень
душно
1010.3 1009.6
12 17.06 С 7-10
{11}
20 км 6/6 600 м
[Cu med, cong]
+31.2 +19.1 49 +37 +38 очень
душно
1010.0 1009.3
15 17.06 С 3
{10}
20 км 8/8 600 м
[Cu Sc]
+31.0 +19.3 50 +37 +37 очень
душно
1010.3 1009.6
18 17.06 СВ 3
{10}
20 км 1/1 600 м
[Cu med, cong]
+26.6 +16.7 55 +30 +30 душно 1011.1 1010.4 +32.5
21 17.06 В 2 20 км ясно +22.7 +16.7 69 +27 +27 душно 1012.0 1011.3
00 18.06 В 2 20 км ясно +20.5 +17.1 81 +24 +24 комфорт 1012.1 1011.4
03 18.06 В 1 20 км 1/1 600 м
[Cu hum]
+22.3 +18.3 78 +27 +28 душно 1011.9 1011.2 +20.2
06 18.06 СВ 3 20 км 3/3 600 м
[Cu hum Ci fib]
+27.8 +19.0 59 +33 +38 очень
душно
1012.1 1011.4 +20.2
09 18.06 СВ 6
{10}
20 км 4/4 600 м
[Cu med, cong]
+30.1 +17.2 46 +34 +38 очень
душно
1012.3 1011.6
12 18.06 З 5 20 км 4/4 600 м
[Cu hum]
+29.2 +20.7 60 +36 +41 очень
душно
1012.1 1011.4
15 18.06 СВ 7-10
{11}
20 км 1/1 600 м
[Cu hum]
+30.5 +15.9 41 +33 +34 душно 1011.2 1010.5
18 18.06 В 1
{10}
20 км ясно +27.4 +13.6 43 +29 +29 жарко 1012.3 1011.6 +31.5
21 18.06 В 2 20 км ясно +21.4 +11.5 53 +23 +23 комфорт 1012.6 1011.9
00 19.06 В 1 20 км ясно +19.5 +12.2 63 +22 +22 комфорт 1012.2 1011.5
03 19.06 В 3 20 км ясно +20.4 +14.2 68 +23 +24 комфорт 1012.1 1011.4 +19.2

 

Местоположение метеостанции Херсонесский Маяк (город Севастополь, Россия): широта 44.58 долгота 33.38 высота над уровнем моря 4 м.

В архиве по умолчанию представлена погода в Херсонесском Маяке за последнюю неделю. Архивные данные за месяц целиком и за предыдущие месяцы, начиная с января 2011 года, Вы можете получить, выбрав интересующий диапазон дат из раскрывающегося списка и нажав кнопку "Ввод!".


*Определитесь, кто Вы:
робот инопланетянин человек

Внимание! Время в таблицах - всемирное. Для получения местного времени необходимо прибавить поправку, которая равна 3 ч.

Смотрите также архив погоды в соседних городах и на ближайших метеорологических станциях:

Погода в Севастополе (город Севастополь, Россия) (13 км)
Погода в Почтовом (Крым, Россия) (53 км)
Погода на Ай-Петри (Крым, Россия) (57 км)
Погода в Ялте (Крым, Россия) (64 км)
Погода в Евпатории (Крым, Россия) (67 км)
Погода в Симферополе (Крым, Россия) (68 км)
Погода в Никитском саду (Крым, Россия) (69 км)
Погода в Симферополе город (Крым, Россия) (71 км)
Погода на Ангарском Перевале (Крым, Россия) (79 км)
Погода в Алуште (Крым, Россия) (81 км)

Пояснения к столбцам:

Ветер - указаны скорость ветра в м/с - средняя за 10 мин, порывы в срок и между сроками (в фигурных скобках) и направление, откуда дует ветер: С - северный, СВ - северо-восточный, В - восточный, ЮВ - юго-восточный, Ю - южный, ЮЗ - юго-западный, З - западный, СЗ - северо-западный.
Видимость - горизонтальная дальность видимости в метрах или километрах. При видимости от 1 до 10 км при отсутствии осадков обычно наблюдается дымка, при ухудшении видимости до 1 км и менее - туман. В сухую погоду видимость может ухудшаться дымом, пылью или мглою.
Явления - указаны атмосферные явления, наблюдавшиеся в срок или в последний час перед сроком; фигурными скобками обозначены явления, наблюдавшиеся между сроками (за 1-3 часа до срока); квадратными скобками обозначены град или гололедные отложения с указанием их диаметра в мм.
Облачность - указаны через наклонную черту общая и нижняя облачность в баллах и высота нижней границы облаков в метрах; квадратными скобками обозначены формы облаков: Ci - перистые, Cs - перисто-слоистые, Cc - перисто-кучевые, Ac - высококучевые, As - высокослоистые, Sc - слоисто-кучевые, Ns - слоисто-дождевые, Cu - кучевые, Cb - кучево-дождевые. Подробнее классификацию облаков см. в Атласе облаков (PDF).
T - Температура воздуха - температура, измеренная на высоте 2 м над землей.
Td - Температура точки росы - температура, при понижении до которой содержащийся в воздухе водяной пар достигнет насыщения.
f - Относительная влажность воздуха - влажноcть воздуха, измеренная на высоте 2 м над землей.
Te - Эффективная температура - температура, которую ощущает одетый по сезону человек в тени. Характеристика душности погоды. При расчете учитывается влияние влажности воздуха и скорости ветра на теплоощущения человека.
Tes - Эффективная температура на солнце - температура, которую ощущает человек, с поправкой на солнечный нагрев. Характеристика знойности погоды. Зависит от высоты солнца над горизонтом, облачности и скорости ветра. Ночью, в пасмурную погоду, а также при ветре 12 м/с и более поправка равна нулю.
P - Атмосферное давление - приведенное к уровню моря атмосферное давление.
Po - Атмосферное давление - измеренное на уровне метеостанции атмосферное давление.
Tmin - Минимальная температура - минимум температуры воздуха на высоте 2 м над землей.
Tmax - Максимальная температура - максимум температуры воздуха на высоте 2 м над землей.
R - Количество осадков - Количество выпавших осадков за период времени, мм. При наведении курсора мыши на число - период времени, за который выпало указанное количество осадков.
R24 - Количество осадков - Количество выпавших осадков за 24 часа, мм.
S - Снежный покров - Высота снежного покрова, см. При наведении курсора мыши на число - состояние снежного покрова и степень покрытия местности в баллах.